Startpagina
METAR-TAF:

METAR-TAF

Vliegvelden :

Erie, Colorado, Verenigde Staten

breedte: 40-00-37N, lengte: 105-02-53W, hoogte: 1564 m

Actueel weer

Dit bericht is 24 minuten geleden gemaakt, om 23:36 UTC
Wind 11 kt uit het zuidoosten met uitschieters tot 15 kt
Temperatuur 15°C
Vochtigheid 18%
Druk 1018 hPa
Zicht: 16.1 km
Verspreide wolken op 12000 ft

METAR: KEIK 212336Z AUTO 14011G15KT 10SM SCT120 15/M09 A3005 RMK AO2 T01521094

Tijdstip: 18:00 (00:00 UTC)


TAF: ontbreekt

Waarnemingen en weersverwachtingen van meer dan 4000 vliegvelden (METAR en TAF).

De beschikbare stations zijn de gele en rode punten op de kaart.

Ga met uw muis naar het station om de naam te zien.

Klik dan om waarnemingen en weersverwachtingen te zien.

kaart wijzigen: klik op de groene knoppen met een zwart kruis om in te zoomen, op de groene knop met een streepje om uit te zoomen of op de groene pijlen voor aangrenzende kaarten.


METAR-TAF: